Change the Weather History Date:

Saturday, January 25, 2014

  Actual Average Record
Temperature  
Mean Temperature 21 °F -  
Max Temperature 30 °F 33 °F 68 °F (1950)
Min Temperature 12 °F 19 °F -8 °F (1961)
Degree Days  
Heating Degree Days 44    
Moisture  
Dew Point 15 °F    
Average Humidity 78    
Maximum Humidity 100    
Minimum Humidity 56    
Precipitation  
Precipitation 0.06 in - - ()
Sea Level Pressure  
Sea Level Pressure 29.52 in    
Wind  
Wind Speed 18 mph (WNW)    
Max Wind Speed 26 mph    
Max Gust Speed 39 mph    
Visibility 3 miles    
Events Fog , Snow    
Averages and records for this station are not official NWS values.
T = Trace of Precipitation, MM = Missing Value Source: NWS Daily Summary

Daily Weather History Graph

Daily Weather History Graph

Search for Another Location

Airport or City:

Trip Planner

Search our weather history database for the weather conditions in past years. The results will help you decide how hot, cold, wet, or windy it might be!

Date:

Astronomy

Jan. 25, 2014 Rise Set
Actual Time 8:05 AM EST 5:51 PM EST
Civil Twilight 7:35 AM EST 6:21 PM EST
Nautical Twilight 7:01 AM EST 6:55 PM EST
Astronomical Twilight 6:28 AM EST 7:28 PM EST
Moon 2:36 AM EST (1/25) 12:51 PM EST (1/25)
Length of Visible Light 10h 46m
Length of Day
9h 46m
Waning Crescent, 34% of the Moon is Illuminated
Jan 25
Waning Crescent
Jan 30
New
Feb 6
First Quarter
Feb 14
Full
Feb 22
Last Quarter

Hourly Weather History & Observations

Time (EST) Temp. Windchill Dew Point Humidity Pressure Visibility Wind Dir Wind Speed Gust Speed Precip Events Conditions
12:11 AM 23.0 °F 8.0 °F 21.2 °F 93% 29.49 in 0.8 mi SW 20.7 mph 33.4 mph 0.00 in Snow Light Snow
12:37 AM 23.0 °F 8.0 °F 21.2 °F 93% 29.47 in 0.8 mi SW 20.7 mph 33.4 mph 0.00 in Snow Light Snow
12:53 AM 23.0 °F 7.6 °F 21.9 °F 96% 29.49 in 0.8 mi SW 21.9 mph 32.2 mph 0.00 in Snow Light Snow
1:53 AM 24.1 °F 9.4 °F 23.0 °F 96% 29.44 in 0.8 mi SW 20.7 mph 39.1 mph 0.00 in Snow Light Snow
2:08 AM 24.8 °F 9.0 °F 23.0 °F 93% 29.41 in 0.5 mi SW 25.3 mph 33.4 mph 0.00 in Fog , Snow Snow
2:18 AM 24.8 °F 9.6 °F 23.0 °F 93% 29.40 in 0.8 mi SW 23.0 mph 34.5 mph 0.00 in Snow Light Snow
2:26 AM 24.8 °F 9.3 °F 24.8 °F 100% 29.40 in 1.0 mi SW 24.2 mph 32.2 mph 0.00 in Snow Light Snow
2:34 AM 24.8 °F 8.7 °F 24.8 °F 100% 29.40 in 0.8 mi SW 26.5 mph 35.7 mph 0.00 in Snow Light Snow
2:48 AM 24.8 °F 10.0 °F 24.8 °F 100% 29.39 in 1.5 mi SW 21.9 mph 33.4 mph 0.00 in Snow Light Snow
2:53 AM 25.0 °F 10.2 °F 24.1 °F 96% 29.42 in 1.5 mi SW 21.9 mph 33.4 mph 0.00 in Snow Light Snow
3:00 AM 24.8 °F 10.3 °F 24.8 °F 100% 29.38 in 0.8 mi SW 20.7 mph 34.5 mph 0.00 in Snow Light Snow
3:26 AM 26.6 °F 13.4 °F 24.8 °F 93% 29.37 in 0.5 mi SW 18.4 mph 29.9 mph 0.00 in Fog , Snow Snow
3:39 AM 26.6 °F 12.0 °F 26.6 °F 100% 29.37 in 0.8 mi SW 23.0 mph 27.6 mph 0.00 in Snow Light Snow
3:50 AM 26.6 °F 13.1 °F 26.6 °F 100% 29.36 in 0.5 mi WSW 19.6 mph 28.8 mph 0.00 in Fog , Snow Snow
3:53 AM 27.0 °F 12.8 °F 27.0 °F 100% 29.39 in 0.8 mi WSW 21.9 mph 31.1 mph 0.01 in Snow Light Snow
4:08 AM 28.4 °F 15.4 °F 26.6 °F 93% 29.36 in 1.0 mi WSW 19.6 mph 27.6 mph 0.00 in Snow Light Snow
4:20 AM 28.4 °F 15.8 °F 28.4 °F 100% 29.35 in 0.8 mi WSW 18.4 mph 27.6 mph 0.00 in Snow Light Snow
4:29 AM 28.4 °F 16.2 °F 28.4 °F 100% 29.35 in 1.0 mi WSW 17.3 mph 27.6 mph 0.00 in Snow Light Snow
4:36 AM 28.4 °F 15.4 °F 28.4 °F 100% 29.35 in 0.8 mi WSW 19.6 mph 26.5 mph 0.00 in Snow Light Snow
4:43 AM 28.4 °F 14.7 °F 28.4 °F 100% 29.35 in 1.2 mi WSW 21.9 mph 28.8 mph 0.00 in Snow Light Snow
4:53 AM 28.9 °F 15.4 °F 28.0 °F 96% 29.38 in 2.0 mi West 21.9 mph 28.8 mph 0.00 in Snow Light Snow
5:17 AM 30.2 °F 18.1 °F 28.4 °F 93% 29.35 in 1.2 mi West 18.4 mph 27.6 mph 0.00 in Snow Light Snow
5:29 AM 30.2 °F 17.8 °F 28.4 °F 93% 29.35 in 0.8 mi West 19.6 mph - 0.00 in Snow Light Snow
5:35 AM 30.2 °F 21.9 °F 28.4 °F 93% 29.35 in 0.2 mi WNW 9.2 mph 26.5 mph 0.01 in Fog , Snow Snow
5:53 AM 28.0 °F 17.5 °F 28.0 °F 100% 29.38 in 0.5 mi NW 12.7 mph 21.9 mph 0.04 in Fog , Snow Snow
6:01 AM 28.4 °F 19.1 °F 26.6 °F 93% 29.36 in 1.0 mi WNW 10.4 mph 25.3 mph 0.00 in Snow Light Snow
6:06 AM 28.4 °F 19.1 °F 26.6 °F 93% 29.35 in 1.8 mi WNW 10.4 mph 21.9 mph 0.00 in Snow Light Snow
6:09 AM 28.4 °F 18.5 °F 26.6 °F 93% 29.36 in 3.0 mi WNW 11.5 mph 20.7 mph 0.00 in Snow Light Snow
6:37 AM 30.2 °F 18.9 °F 21.2 °F 69% 29.36 in 9.0 mi WNW 16.1 mph 27.6 mph 0.00 in   Overcast
6:53 AM 28.9 °F 17.7 °F 18.0 °F 64% 29.40 in 10.0 mi WNW 15.0 mph 26.5 mph 0.00 in   Scattered Clouds
7:53 AM 28.0 °F 15.3 °F 14.0 °F 56% 29.41 in 8.0 mi WNW 18.4 mph 29.9 mph N/A   Mostly Cloudy
8:53 AM 26.1 °F 12.0 °F 16.0 °F 66% 29.44 in 5.0 mi WNW 20.7 mph 29.9 mph N/A   Haze
9:53 AM 21.9 °F 7.3 °F 9.0 °F 58% 29.49 in 3.0 mi WNW 18.4 mph 31.1 mph N/A   Haze
10:00 AM 23.0 °F 8.7 °F 10.4 °F 59% 29.47 in 2.0 mi WNW 18.4 mph 28.8 mph N/A   Haze
10:10 AM 23.0 °F 9.2 °F 10.4 °F 59% 29.47 in 4.0 mi WNW 17.3 mph 31.1 mph N/A   Haze
10:53 AM 23.0 °F 9.2 °F 12.0 °F 63% 29.52 in 6.0 mi WNW 17.3 mph 31.1 mph N/A   Haze
11:16 AM 21.2 °F 8.9 °F 12.2 °F 68% 29.51 in 0.8 mi NNW 12.7 mph 26.5 mph 0.00 in Snow Light Snow
11:23 AM 19.4 °F 8.6 °F 15.8 °F 86% 29.52 in 0.2 mi North 9.2 mph 25.3 mph 0.00 in Fog , Snow Snow
11:53 AM 19.0 °F 6.8 °F 14.0 °F 81% 29.57 in 0.5 mi NNW 11.5 mph 27.6 mph 0.01 in Snow Snow
12:09 PM 17.6 °F 4.3 °F 14.0 °F 86% 29.54 in 0.8 mi NNW 12.7 mph 26.5 mph 0.00 in Snow Light Snow
12:20 PM 19.4 °F 5.5 °F 10.4 °F 68% 29.54 in 1.5 mi NW 15.0 mph 27.6 mph 0.00 in Snow Light Snow
12:25 PM 19.4 °F 6.0 °F 10.4 °F 68% 29.55 in 2.5 mi NW 13.8 mph 27.6 mph 0.00 in   Haze
12:41 PM 19.4 °F 6.6 °F 8.6 °F 63% 29.55 in 8.0 mi NNW 12.7 mph 26.5 mph 0.00 in   Overcast
12:53 PM 19.0 °F 10.0 °F 10.0 °F 68% 29.58 in 5.0 mi Variable 6.9 mph 19.6 mph 0.00 in   Haze
1:30 PM 17.6 °F 4.3 °F 8.6 °F 68% 29.58 in 2.5 mi NW 12.7 mph 27.6 mph N/A   Haze
1:36 PM 17.6 °F 4.3 °F 10.4 °F 73% 29.58 in 1.2 mi NW 12.7 mph 26.5 mph 0.00 in Snow Light Snow
1:43 PM 17.6 °F 4.3 °F 8.6 °F 68% 29.58 in 2.0 mi NW 12.7 mph 21.9 mph 0.00 in Snow Light Snow
1:53 PM 18.0 °F 4.2 °F 9.0 °F 68% 29.61 in 3.0 mi NW 13.8 mph 27.6 mph 0.00 in   Haze
1:56 PM 17.6 °F 2.7 °F 8.6 °F 68% 29.58 in 1.8 mi NW 16.1 mph 26.5 mph 0.00 in Snow Light Snow
2:04 PM 17.6 °F 4.3 °F 10.4 °F 73% 29.59 in 1.0 mi NW 12.7 mph 31.1 mph 0.00 in Snow Light Snow
2:08 PM 15.8 °F 2.1 °F 10.4 °F 79% 29.59 in 0.5 mi NW 12.7 mph 28.8 mph 0.00 in Snow Snow
2:29 PM 15.8 °F -0.2 °F 10.4 °F 79% 29.60 in 1.0 mi NW 17.3 mph 27.6 mph 0.00 in Snow Light Snow
2:35 PM 15.8 °F -0.2 °F 8.6 °F 73% 29.61 in 2.0 mi NW 17.3 mph 29.9 mph 0.00 in Snow Light Snow
2:43 PM 15.8 °F 0.3 °F 8.6 °F 73% 29.61 in 1.2 mi NW 16.1 mph 29.9 mph 0.00 in Snow Light Snow
2:53 PM 16.0 °F 1.7 °F 10.0 °F 77% 29.65 in 1.0 mi WNW 13.8 mph 28.8 mph 0.00 in Snow Light Snow
2:57 PM 15.8 °F -0.2 °F 6.8 °F 68% 29.62 in 2.0 mi WNW 17.3 mph 27.6 mph 0.00 in Snow Light Snow
3:04 PM 15.8 °F -0.2 °F 6.8 °F 68% 29.62 in 6.0 mi WNW 17.3 mph 28.8 mph 0.00 in   Haze
3:13 PM 15.8 °F -0.2 °F 3.2 °F 58% 29.63 in 10.0 mi WNW 17.3 mph 26.5 mph 0.00 in   Mostly Cloudy
3:26 PM 15.8 °F 0.9 °F 6.8 °F 68% 29.64 in 1.8 mi WNW 15.0 mph 26.5 mph 0.00 in Snow Light Snow
3:34 PM 15.8 °F -1.5 °F 6.8 °F 68% 29.65 in 1.0 mi WNW 20.7 mph 29.9 mph 0.00 in Snow Light Snow
3:36 PM 15.8 °F 0.9 °F 6.8 °F 68% 29.65 in 0.8 mi WNW 15.0 mph 29.9 mph 0.00 in Snow Light Snow
3:46 PM 15.8 °F 0.9 °F 6.8 °F 68% 29.65 in 1.5 mi WNW 15.0 mph 25.3 mph 0.00 in Snow Light Snow
3:48 PM 15.8 °F 1.4 °F 5.0 °F 62% 29.65 in 2.0 mi WNW 13.8 mph 25.3 mph 0.00 in Snow Light Snow
3:51 PM 15.8 °F 0.3 °F 5.0 °F 62% 29.66 in 3.0 mi WNW 16.1 mph 25.3 mph 0.00 in   Haze
3:53 PM 15.1 °F -0.6 °F 3.9 °F 61% 29.69 in 4.0 mi WNW 16.1 mph 25.3 mph 0.00 in   Haze
4:53 PM 14.0 °F -1.4 °F 3.0 °F 62% 29.72 in 10.0 mi WNW 15.0 mph 25.3 mph N/A   Overcast
5:53 PM 14.0 °F -3.0 °F 1.9 °F 59% 29.75 in 5.0 mi WNW 18.4 mph 29.9 mph N/A   Haze
6:53 PM 14.0 °F -0.8 °F 1.0 °F 56% 29.78 in 7.0 mi WNW 13.8 mph 27.6 mph N/A   Overcast
7:53 PM 14.0 °F -0.8 °F 1.9 °F 59% 29.81 in 9.0 mi WNW 13.8 mph 26.5 mph N/A   Overcast
8:53 PM 12.9 °F -3.9 °F 1.9 °F 62% 29.83 in 10.0 mi WNW 17.3 mph 24.2 mph N/A   Overcast
9:53 PM 14.0 °F -1.4 °F 1.9 °F 59% 29.84 in 9.0 mi WNW 15.0 mph 26.5 mph N/A   Overcast
10:53 PM 12.9 °F 0.7 °F 1.9 °F 62% 29.83 in 10.0 mi WNW 9.2 mph 23.0 mph 0.00 in   Overcast
11:53 PM 12.9 °F -1.6 °F 3.0 °F 65% 29.83 in 9.0 mi West 12.7 mph 19.6 mph N/A   Overcast